STARLINK-33699, 63328

Orbit data source: Space-Track

STARLINK-33699, 63328 is a payload satellite owned by SpaceX/Seattle (US) in LEO that was launched on Tue, 18 Mar 2025 UTC via an FALCON 9 launch vehicle from the Air Force Eastern Test Range (AFETR). Payload-class satellites include a variety of spacecraft equipped with specific instruments for various scientific and technological missions. These include communications satellites like Starlink; space stations such as the ISS; scientific satellites like the Hubble; Earth observation satellites from companies like Planet Labs, Umbra, and HawkEye 360; GPS; miniature CubeSats for education and research; and military/defense satellites.

Loading next visibility...
Identifier
63328, 2025-057X
Orbit
LEO
Country
Flag of USUS
Related business
Manufacturer
SpaceX/Seattle
Mission
Operational Commercial Communications
Bus & Motor
STARLINK V2MO, Unknown motor
Mass
575 kg wet, ~530 kg dry
Launch date (UTC)
2025-03-18 (1 year ago)
Launch vehicle
FALCON 9
Launch site
Air Force Eastern Test Range (AFETR)
Object type
Payload
Rocket body
Debris
Shape & HBR
Box + 1 Pan, 17.7 m
Radar Cross Section
41.120 m², Large (>1 m²)

Expand to show TLE details & history
Last TLE update: 11 hours ago

TLE from 11 hours ago
0 STARLINK-33699
1 63328U 25057X   26257.43752248  .00010831  00000-0  40249-3 0  9993
2 63328  43.0016  37.1376 0001172 271.8974  88.1743 15.27582955 84691
Epoch: 2026-09-14T10:30Z
TLE epoch observation values (Epoch: 2026-09-14T10:30:01.942Z)
Latitude
-0.00004°
Longitude
-113.78836°
Altitude
482.79 km
Speed
7.626 km/s
True Right ascension
02h 28m 33s
True Declination
0° 00' 00"
Sunlit
Object was in full shadow at epoch
Visualization orbit readout
Latitude
Unknown
Longitude
Unknown
Altitude
Unknown
Speed
Unknown
Apparent Right ascension
Unknown
Apparent Declination
Unknown
Sunlit
N/A
Visualization observer readout
Local Sidereal Time
14:20:07
Azimuth
Unknown
Elevation
Unknown
Doppler factor
Unknown
Orbital elements
Apogee altitude
485.79 km
Perigee altitude
484.181 km
Semi-major axis
6,863.122 km
Eccentricity
0.00012
Inclination
43.0016°
RAAN
37.1376°
Arg. of periapsis
271.8974°
True anomaly
88.18772°
Mean anomaly
88.1743°
Eccentric anomaly
88.18101°
Mean motion
3.81734 °/min
Orbital period
94.31 mins
BSTAR
0.00040249
Loading maneuver chart data...
Computing Atmospheric mass density...
Loading historical data...
Loading historical data...
Loading historical data...
Loading historical data...
Loading historical data...
Loading historical data...
Loading historical data...

Documentation

Showing up to 5 results
|